Change the Weather History Date:

Wednesday, October 3, 2012

  Actual Average Record
Temperature  
Mean Temperature 70 °F -  
Max Temperature 75 °F 65 °F 81 °F (2002)
Min Temperature 64 °F 49 °F 37 °F (2003)
Cooling Degree Days 4    
Growing Degree Days 20 (Base 50)    
Moisture  
Dew Point 67 °F    
Average Humidity 97    
Maximum Humidity 100    
Minimum Humidity 83    
Precipitation  
Precipitation 0.01 in - - ()
Sea Level Pressure  
Sea Level Pressure 30.06 in    
Wind  
Wind Speed 4 mph (ENE)    
Max Wind Speed 8 mph    
Max Gust Speed -    
Visibility 4 miles    
Events Fog    
Averages and records for this station are not official NWS values.
T = Trace of Precipitation, MM = Missing Value Source: NWS Daily Summary

Daily Weather History Graph

Daily Weather History Graph

Search for Another Location

Airport or City:

Trip Planner

Search our weather history database for the weather conditions in past years. The results will help you decide how hot, cold, wet, or windy it might be!

Date:

Astronomy

Oct. 03, 2012 Rise Set
Actual Time 6:52 AM EDT 6:31 PM EDT
Civil Twilight 6:25 AM EDT 6:58 PM EDT
Nautical Twilight 5:53 AM EDT 7:30 PM EDT
Astronomical Twilight 5:21 AM EDT 8:02 PM EDT
Moon 8:20 PM EDT (10/3) 10:14 AM EDT (10/3)
Length of Visible Light 12h 33m
Length of Day
11h 38m
Waning Gibbous, 89% of the Moon is Illuminated
Oct 3
Waning Gibbous
Oct 8
Last Quarter
Oct 15
New
Oct 21
First Quarter
Oct 29
Full

Hourly Weather History & Observations

Time (EDT) Temp. Dew Point Humidity Pressure Visibility Wind Dir Wind Speed Gust Speed Precip Events Conditions
12:53 AM 64.9 °F 64.9 °F 100% 29.98 in 1.0 mi North 4.6 mph - N/A   Overcast
1:53 AM 64.9 °F 64.9 °F 100% 29.99 in 1.0 mi North 5.8 mph - 0.01 in   Overcast
2:53 AM 64.9 °F 64.9 °F 100% 29.98 in 1.2 mi NNE 3.5 mph - N/A   Overcast
3:31 AM 64.4 °F 64.4 °F 100% 29.98 in 2.0 mi NNE 6.9 mph - N/A   Overcast
3:43 AM 64.4 °F 64.4 °F 100% 29.98 in 1.5 mi NE 6.9 mph - N/A   Overcast
3:53 AM 64.0 °F 64.0 °F 100% 29.99 in 1.5 mi NNE 5.8 mph - N/A   Overcast
4:22 AM 64.4 °F 64.4 °F 100% 29.99 in 0.8 mi NNE 5.8 mph - N/A   Mist
4:53 AM 64.0 °F 64.0 °F 100% 30.00 in 1.0 mi NNE 5.8 mph - N/A   Mist
5:53 AM 64.0 °F 64.0 °F 100% 30.01 in 2.5 mi NE 5.8 mph - N/A   Overcast
6:13 AM 64.4 °F 64.4 °F 100% 30.01 in 3.0 mi NNE 3.5 mph - N/A   Overcast
6:23 AM 64.4 °F 64.4 °F 100% 30.01 in 2.5 mi NE 4.6 mph - N/A   Overcast
6:48 AM 64.4 °F 64.4 °F 100% 30.03 in 3.0 mi NE 3.5 mph - N/A   Overcast
6:53 AM 64.0 °F 64.0 °F 100% 30.03 in 4.0 mi Calm Calm - N/A   Overcast
7:24 AM 64.4 °F 64.4 °F 100% 30.04 in 1.0 mi North 5.8 mph - N/A   Overcast
7:34 AM 64.4 °F 64.4 °F 100% 30.04 in 0.5 mi North 6.9 mph - N/A   Overcast
7:53 AM 64.0 °F 64.0 °F 100% 30.06 in 1.2 mi North 4.6 mph - N/A   Overcast
8:53 AM 64.0 °F 64.0 °F 100% 30.06 in 1.2 mi NE 5.8 mph - N/A   Overcast
9:41 AM 66.2 °F 66.2 °F 100% 30.06 in 2.5 mi ENE 3.5 mph - N/A   Overcast
9:53 AM 66.0 °F 66.0 °F 100% 30.06 in 3.0 mi ENE 3.5 mph - N/A   Overcast
10:38 AM 69.8 °F 66.2 °F 88% 30.07 in 10.0 mi Calm Calm - N/A   Overcast
10:48 AM 69.8 °F 66.2 °F 88% 30.07 in 10.0 mi NE 3.5 mph - N/A   Overcast
10:53 AM 70.0 °F 66.9 °F 90% 30.07 in 10.0 mi NE 3.5 mph - N/A   Overcast
11:12 AM 69.8 °F 68.0 °F 94% 30.08 in 10.0 mi North 3.5 mph - N/A   Overcast
11:53 AM 71.1 °F 68.0 °F 90% 30.07 in 10.0 mi Calm Calm - N/A   Overcast
12:42 PM 73.4 °F 69.8 °F 88% 30.06 in 9.0 mi Calm Calm - N/A   Mostly Cloudy
12:53 PM 73.0 °F 69.1 °F 87% 30.06 in 10.0 mi SE 4.6 mph - N/A   Mostly Cloudy
1:23 PM 75.2 °F 71.6 °F 89% 30.05 in 10.0 mi South 4.6 mph - N/A   Mostly Cloudy
1:34 PM 75.2 °F 69.8 °F 83% 30.05 in 10.0 mi South 8.1 mph - N/A   Overcast
1:53 PM 73.9 °F 70.0 °F 87% 30.05 in 10.0 mi South 6.9 mph - N/A   Overcast
2:10 PM 73.4 °F 69.8 °F 88% 30.06 in 10.0 mi South 8.1 mph - N/A   Overcast
2:30 PM 71.6 °F 69.8 °F 94% 30.05 in 10.0 mi South 6.9 mph - N/A   Overcast
2:53 PM 70.0 °F 68.0 °F 93% 30.06 in 10.0 mi South 5.8 mph - N/A   Overcast
3:53 PM 70.0 °F 68.0 °F 93% 30.06 in 9.0 mi SSE 5.8 mph - N/A   Overcast
4:53 PM 69.1 °F 68.0 °F 96% 30.07 in 6.0 mi SSE 3.5 mph - N/A   Overcast
5:23 PM 68.0 °F 68.0 °F 100% 30.08 in 2.0 mi Calm Calm - N/A   Overcast
5:31 PM 68.0 °F 68.0 °F 100% 30.08 in 1.5 mi Calm Calm - N/A   Overcast
5:53 PM 68.0 °F 68.0 °F 100% 30.08 in 1.0 mi SE 4.6 mph - N/A   Overcast
6:00 PM 68.0 °F 68.0 °F 100% 30.08 in 0.8 mi SSE 4.6 mph - N/A   Overcast
6:42 PM 66.2 °F 66.2 °F 100% 30.08 in 1.0 mi ESE 3.5 mph - N/A   Mist
6:51 PM 66.2 °F 66.2 °F 100% 30.08 in 0.5 mi ESE 4.6 mph - N/A Fog Fog
6:53 PM 66.9 °F 66.9 °F 100% 30.08 in 0.5 mi ESE 4.6 mph - N/A Fog Fog
7:53 PM 66.9 °F 66.9 °F 100% 30.09 in 0.8 mi Calm Calm - N/A   Mist
8:01 PM 66.2 °F 66.2 °F 100% 30.09 in 1.0 mi Calm Calm - N/A   Mist
8:50 PM 66.2 °F 66.2 °F 100% 30.09 in 2.5 mi East 3.5 mph - N/A   Overcast
8:53 PM 66.9 °F 66.9 °F 100% 30.09 in 2.0 mi East 3.5 mph - N/A   Overcast
9:07 PM 66.2 °F 66.2 °F 100% 30.10 in 3.0 mi Calm Calm - N/A   Overcast
9:53 PM 66.9 °F 66.9 °F 100% 30.12 in 5.0 mi Calm Calm - N/A   Overcast
10:40 PM 66.2 °F 66.2 °F 100% 30.12 in 2.0 mi Calm Calm - 0.00 in   Overcast
10:53 PM 66.9 °F 66.9 °F 100% 30.12 in 2.5 mi Calm Calm - 0.00 in   Overcast
11:01 PM 66.2 °F 66.2 °F 100% 30.13 in 1.2 mi Calm Calm - N/A   Overcast
11:18 PM 66.2 °F 66.2 °F 100% 30.12 in 0.5 mi Calm Calm - N/A Fog Fog
11:53 PM 66.9 °F 66.9 °F 100% 30.12 in 0.5 mi Calm Calm - N/A Fog Fog